Location: *
(57.8420°S, 159.8600°W)
Time: 02:08:15
(UTC+00:00)

Meteor 2-6 Rocket - Pass Details

Date: 18 May 2021
Orbit: 807 x 913 km, 81.3° (Epoch: 23 June)

Event Time Altitude Azimuth Distance (km) Brightness Sun altitude
Rises 04:56:44 0° 196° (SSW) 3,459 7.5 -19.2°
Reaches altitude 10° 04:59:17 10° 190° (S) 2,501 6.7 -19.6°
Maximum altitude 05:04:47 50° 114° (ESE) 1,059 4.3 -20.3°
Enters shadow 05:06:44 35° 62° (ENE) 1,322 4.8 -20.6°
